sat.trackr.live / text

‹ back to catalog

STARLINK-4495

NORAD 53552 · 2022-101AB

PAYLOAD ACTIVE UNKNOWN

§ Identity

Operator
Country
US
Launch date
2022-08-19
Launch site
AFETR
Launch vehicle
Mass (kg)
RCS (m²)

Purposes: comms

External: N2YO · Heavens-Above · Gunter

§ Orbital elements

Epoch: 2026-09-19T17:59:42.714816Z

Period
95.44 min
Inclination
53.1603°
Eccentricity
0.0001283
Mean motion
15.08829753 rev/d
Perigee alt
538.9 km
Apogee alt
540.7 km
Semi-major
6,917.9 km
B*
4.3132e-5
RAAN
272.2953°
Arg perigee
83.8697°
Mean anomaly
276.2440°
Rev number
22,625

§ Raw data

STARLINK-44951 53552U 22101AB  26262.74979994  .00000398  00000+0  43132-4 0  99982 53552  53.1603 272.2953 0001283  83.8697 276.2440 15.08829753226255

JSON: /api/v1/satellites/53552 · /tle

For live sub-satellite position, see the globe view (requires WebGL).

§ Visibility from observer

Set your observer location to see the next 7 days of passes ≥ 10°. The values pass through the URL so the page stays shareable.

No JS? Fill the form by hand. The geolocation button needs JavaScript.